[[{"header":{"parameterUnit":"m.s-1","parameterCategory":2,"la1":30.2991,"la2":30.254,"lo1":-89.0895,"lo2":-89.0444,"dy":0.0017,"dx":0.0017,"nx":28,"ny":28,"refTime":"2024-06-18T03:00:00:Z","depth":"0","parameterNumber":2,"parameterNumberName":"U-component_of_CURRENTS"},"data":[0,0,0,0,0,0,0,0,0,0,0,0,0,0,0,0,0,0,0,0,0,0,0,0,0,0,0,0,0,0,0,0,0,0,0,0,0,0,0,0,0,0,0,0,0,0,0,0,0,0,0,0,0,0,0,0,0,0,0.1577,0.1577,0,0.1573,0.1573,0.1573,0.1553,0.1553,0.1552,0.1552,0.1527,0.1527,0.1527,0,0,0,0,0,0,0,0,0,0,0,0,0,0.1559,0.1559,0.1577,0.1577,0.1577,0.1573,0.1573,0.1573,0.1553,0.1553,0.1552,0.1552,0.1528,0.1527,0.1527,0,0,0,0,0,0,0,0,0,0,0,0,0,0.156,0.1559,0.1577,0.1569,0.1568,0.1573,0.1573,0.1573,0.1553,0.1553,0.1552,0.1552,0.1528,0.1527,0.1527,0.153,0,0,0.1525,0.1524,0,0,0,0,0,0,0,0,0.156,0.156,0.157,0.1569,0.1569,0.1565,0.1558,0.1558,0.1553,0.1556,0.1552,0.1552,0.154,0.1538,0.1535,0.1529,0.1528,0.1525,0.1524,0.1524,0.1524,0,0,0,0,0,0,0,0.156,0.156,0.1573,0.157,0.1569,0.1563,0.1562,0.1558,0.1548,0.1556,0.1555,0.1559,0.1539,0.1536,0.1535,0.1528,0.1525,0.1524,0.1524,0.1523,0.1551,0.1552,0,0,0,0,0,0,0.1566,0.156,0.1573,0.1573,0.1566,0.1564,0.1563,0.1565,0.1549,0.1547,0.1559,0.1558,0.1537,0.1535,0.1534,0.1559,0.1524,0.1523,0.1523,0.155,0.1551,0.1552,0,0,0,0,0,0,0.1566,0.1567,0.1573,0.1569,0.1569,0.1565,0.1567,0.1565,0.1566,0.1552,0.1549,0.1562,0.1537,0.1535,0.1541,0.1557,0.1523,0.1522,0.1548,0.155,0.1552,0.1596,0,0,0,0,0,0,0.1565,0.1567,0.1569,0.1569,0.157,0.1582,0.1567,0.1565,0.157,0.1568,0.1554,0.1551,0.1536,0.1542,0.154,0.1556,0.1522,0.1547,0.1549,0.1551,0.1593,0.1599,0.1604,0,0,0,0,0,0.1564,0.1568,0.1569,0.1571,0.1573,0.1583,0.1583,0.1576,0.157,0.1575,0.1569,0.1551,0.1554,0.1542,0.154,0.1556,0.1546,0.1548,0.1551,0.1591,0.1598,0.1604,0,0,0,0,0,0,0.1558,0.1566,0.1567,0.1572,0.1582,0.1581,0.1583,0.1582,0.1581,0.1578,0.1563,0.156,0.1573,0.1561,0.1548,0.1571,0.1548,0.155,0.1579,0.1586,0.1591,0.1598,0.1521,0,0,0,0,0,0.156,0.1565,0.1575,0.1579,0.1585,0.1587,0.1589,0.1589,0.1589,0.1588,0.1581,0.1577,0.1582,0.158,0.158,0.1589,0.16,0.1599,0.1605,0.161,0.1615,0.1647,0.1656,0.156,0.156,0.156,0,0,0.1557,0.1564,0.1566,0.1579,0.1583,0.1597,0.1587,0.1596,0.1607,0.1586,0.1597,0.1596,0.159,0.1604,0.1608,0.1594,0.1648,0.1613,0.1617,0.1619,0.1651,0.166,0.1668,0.1562,0.1562,0.1561,0,0,0.1559,0.1564,0.1571,0.1584,0.1599,0.1604,0.1611,0.1618,0.1621,0.1635,0.1628,0.1639,0.1638,0.1642,0.1643,0.1679,0.1678,0.1679,0.1707,0.1739,0.1747,0.1754,0.18,0.1811,0.1678,0.1678,0.1678,0,0.1557,0.1567,0.1575,0.1591,0.1601,0.1611,0.1624,0.1635,0.1644,0.1651,0.1644,0.1664,0.1658,0.1683,0.1697,0.1691,0.1714,0.1681,0.1746,0.1753,0.176,0.1805,0.1817,0.1681,0.168,0.168,0.168,0,0.1567,0.1578,0.1585,0.1609,0.1623,0.1635,0.1656,0.1669,0.1675,0.1687,0.1713,0.1714,0.1725,0.173,0.1724,0.1769,0.1774,0.1752,0.1729,0.1772,0.1817,0.1829,0.1684,0.1683,0.1682,0.1682,0,0,0.1549,0.1584,0.1586,0.1602,0.1631,0.1645,0.167,0.1696,0.1721,0.1732,0.1763,0.1778,0.1784,0.1786,0.1786,0.1813,0.1886,0.1807,0.1807,0.1852,0.1976,0.1956,0.1966,0.1877,0.1879,0.188,0.1996,0,0.1552,0.1579,0.1596,0.1626,0.1644,0.1665,0.1694,0.1722,0.1745,0.1781,0.1792,0.1825,0.1805,0.1822,0.1846,0.1878,0.1915,0.1858,0.1928,0.193,0.1906,0.1977,0.1855,0.1945,0.2007,0.2009,0.201,0,0.1551,0.1573,0.1599,0.1642,0.1653,0.1676,0.1722,0.1752,0.1804,0.1826,0.1855,0.187,0.1918,0.1892,0.197,0.1937,0.1964,0.1985,0.1989,0.1959,0.1929,0.1908,0.1963,0.19,0.2027,0.2025,0.2024,0,0.1531,0.1571,0.1591,0.1606,0.166,0.1678,0.1708,0.1762,0.1789,0.1862,0.1891,0.1942,0.1978,0.2014,0.2053,0.2022,0.2143,0.21,0.211,0.2109,0.2013,0.2,0.201,0.216,0.216,0.2159,0.2159,0,0.1524,0.1541,0.1586,0.1602,0.1632,0.1679,0.1719,0.176,0.1823,0.1856,0.1915,0.1946,0.2012,0.2073,0.2094,0.215,0.2178,0.2139,0.2142,0.2027,0.2015,0.1959,0.1902,0.2164,0.2163,0.2162,0.2161,0,0.1499,0.1527,0.1553,0.1608,0.1623,0.1648,0.1704,0.1734,0.1813,0.1858,0.1883,0.1976,0.2057,0.2124,0.2209,0.2208,0.2186,0.2268,0.214,0.2126,0.2045,0.1994,0.1972,0.1902,0.2295,0.2295,0.2295,0,0.1489,0.1502,0.1544,0.1551,0.1574,0.1613,0.1635,0.1712,0.1738,0.1853,0.1864,0.1981,0.2024,0.2169,0.2206,0.2275,0.2191,0.221,0.2115,0.2048,0.1994,0.193,0.1868,0.2018,0.2016,0.2014,0.2013,0,0.1468,0.1481,0.1499,0.1511,0.1529,0.1544,0.1579,0.1595,0.1684,0.1734,0.1797,0.1853,0.1999,0.2034,0.216,0.2163,0.207,0.2176,0.213,0.1806,0.1712,0.1643,0.1953,0.1998,0.1999,0.2001,0.2001,0.2002,0.1441,0.1441,0.1455,0.1458,0.1465,0.1455,0.1442,0.1482,0.151,0.1559,0.1671,0.1729,0.186,0.2004,0.2024,0.1986,0.1967,0.19,0.1859,0.1816,0.169,0.1983,0.201,0.2011,0.2013,0.2014,0.2015,0,0.1397,0.1396,0.1399,0.1381,0.1348,0.1383,0.1382,0.1355,0.1342,0.1429,0.1478,0.1584,0.165,0.1752,0.1784,0.1696,0.1615,0.162,0.148,0.1443,0.1728,0.1655,0.1575,0.1575,0.1575,0.1575,0.1575,0.1576,0.1374,0.1351,0.1346,0.1265,0.1249,0.1176,0.1158,0.1135,0.1163,0.1183,0.1237,0.1318,0.1465,0.1553,0.1509,0.1456,0.131,0.123,0.125,0.1418,0.1441,0.1462,0.1383,0.1247,0.1247,0.0903,0.09,0.0898]},{"header":{"parameterUnit":"m.s-1","parameterCategory":2,"la1":30.2991,"la2":30.254,"lo1":-89.0895,"lo2":-89.0444,"dy":0.0017,"dx":0.0017,"nx":28,"ny":28,"refTime":"2024-06-18T03:00:00:Z","depth":"0","parameterNumber":3,"parameterNumberName":"V-component_of_CURRENTS"},"data":[0,0,0,0,0,0,0,0,0,0,0,0,0,0,0,0,0,0,0,0,0,0,0,0,0,0,0,0,0,0,0,0,0,0,0,0,0,0,0,0,0,0,0,0,0,0,0,0,0,0,0,0,0,0,0,0,0,0,-0.0171,-0.0172,0,-0.0229,-0.0229,-0.023,-0.0273,-0.0273,-0.0274,-0.0274,-0.0344,-0.0345,-0.0347,0,0,0,0,0,0,0,0,0,0,0,0,0,-0.0127,-0.0127,-0.0171,-0.0172,-0.0173,-0.0229,-0.0229,-0.023,-0.0273,-0.0273,-0.0274,-0.0274,-0.0343,-0.0345,-0.0347,0,0,0,0,0,0,0,0,0,0,0,0,0,-0.0162,-0.0127,-0.0171,-0.02,-0.0203,-0.0228,-0.0229,-0.023,-0.0273,-0.0273,-0.0274,-0.0274,-0.0343,-0.0345,-0.0347,-0.0352,0,0,-0.0354,-0.0356,0,0,0,0,0,0,0,0,-0.016,-0.0163,-0.0195,-0.0198,-0.0202,-0.0244,-0.0239,-0.0271,-0.0273,-0.0247,-0.0274,-0.0275,-0.0311,-0.0316,-0.0326,-0.0355,-0.0358,-0.0355,-0.0356,-0.0357,-0.0358,0,0,0,0,0,0,0,-0.0157,-0.0161,-0.0195,-0.0196,-0.02,-0.022,-0.0225,-0.0246,-0.0276,-0.0249,-0.0253,-0.0258,-0.0313,-0.0324,-0.0328,-0.0359,-0.0355,-0.0357,-0.0358,-0.0359,-0.0409,-0.0409,0,0,0,0,0,0,-0.0147,-0.0159,-0.0193,-0.0196,-0.0181,-0.022,-0.0226,-0.023,-0.0276,-0.0283,-0.0257,-0.0259,-0.032,-0.0325,-0.0331,-0.0343,-0.0357,-0.0359,-0.0361,-0.0409,-0.0409,-0.0409,0,0,0,0,0,0,-0.0146,-0.0149,-0.019,-0.0179,-0.0185,-0.022,-0.0225,-0.0231,-0.0242,-0.0282,-0.0289,-0.0261,-0.032,-0.0328,-0.0347,-0.0345,-0.036,-0.0362,-0.0409,-0.0409,-0.0409,-0.0364,0,0,0,0,0,0,-0.0144,-0.0148,-0.0145,-0.0178,-0.0185,-0.02,-0.0224,-0.0232,-0.0244,-0.0248,-0.0287,-0.0295,-0.0321,-0.0344,-0.035,-0.0349,-0.0364,-0.0409,-0.0409,-0.0409,-0.0365,-0.0362,-0.0359,0,0,0,0,0,-0.0142,-0.0135,-0.0145,-0.0149,-0.0181,-0.0199,-0.0205,-0.0232,-0.0244,-0.0244,-0.0273,-0.0293,-0.0347,-0.0345,-0.0352,-0.0352,-0.0409,-0.0409,-0.0409,-0.0367,-0.0363,-0.0359,0,0,0,0,0,0,-0.011,-0.0139,-0.0151,-0.0152,-0.0171,-0.0206,-0.0207,-0.0227,-0.0249,-0.0252,-0.0291,-0.0299,-0.0317,-0.0339,-0.0336,-0.0367,-0.0382,-0.0383,-0.0348,-0.0345,-0.0342,-0.0327,-0.0366,0,0,0,0,0,-0.0102,-0.0105,-0.0135,-0.0134,-0.0141,-0.0173,-0.0183,-0.0201,-0.0226,-0.0237,-0.0266,-0.0296,-0.0322,-0.0336,-0.0361,-0.0374,-0.0385,-0.038,-0.0377,-0.0374,-0.0367,-0.0384,-0.0381,-0.0408,-0.0408,-0.0408,0,0,-0.0089,-0.0104,-0.0106,-0.0128,-0.0144,-0.0151,-0.018,-0.019,-0.0198,-0.024,-0.0256,-0.0285,-0.0323,-0.0341,-0.0351,-0.0359,-0.037,-0.0374,-0.0371,-0.0366,-0.0383,-0.038,-0.0378,-0.0408,-0.0408,-0.0408,0,0,-0.0065,-0.0078,-0.0074,-0.0088,-0.0109,-0.0129,-0.0129,-0.0161,-0.0177,-0.0194,-0.0229,-0.0254,-0.029,-0.032,-0.0339,-0.0333,-0.0353,-0.0342,-0.0316,-0.0332,-0.033,-0.0328,-0.0327,-0.0326,-0.0342,-0.0342,-0.0342,0,-0.0046,-0.0049,-0.0074,-0.0075,-0.0081,-0.0116,-0.0112,-0.0133,-0.0168,-0.0176,-0.0192,-0.0246,-0.0281,-0.0306,-0.0309,-0.0326,-0.0331,-0.0326,-0.0327,-0.0326,-0.0324,-0.0325,-0.0323,-0.0339,-0.034,-0.034,-0.034,0,-0.0024,-0.0026,-0.0022,-0.0036,-0.0046,-0.0047,-0.0078,-0.0087,-0.0109,-0.0133,-0.0157,-0.0204,-0.0235,-0.0254,-0.0282,-0.0294,-0.0297,-0.0319,-0.0333,-0.0319,-0.032,-0.0319,-0.0336,-0.0337,-0.0338,-0.0338,0,0,0.0019,-0.0003,-0.0001,0.0,-0.0025,-0.0028,-0.0036,-0.0054,-0.0049,-0.0092,-0.0089,-0.0152,-0.0175,-0.0198,-0.0238,-0.0258,-0.0258,-0.0281,-0.0283,-0.0273,-0.0276,-0.0264,-0.0263,-0.0278,-0.0278,-0.0278,-0.0276,0,0.0045,0.0054,0.0034,0.0046,0.0049,0.002,0.0019,-0.0001,-0.002,-0.0024,-0.008,-0.0097,-0.0155,-0.0164,-0.0195,-0.0236,-0.0257,-0.0256,-0.0298,-0.0298,-0.0284,-0.0262,-0.0252,-0.0248,-0.0276,-0.0276,-0.0276,0,0.0074,0.0075,0.0092,0.0089,0.009,0.0095,0.0098,0.0092,0.007,0.0057,0.0026,-0.0015,-0.0055,-0.0103,-0.0171,-0.0165,-0.0217,-0.0255,-0.0256,-0.026,-0.0286,-0.027,-0.0246,-0.034,-0.0275,-0.0275,-0.0275,0,0.0115,0.0117,0.0134,0.0132,0.0124,0.0136,0.0136,0.0123,0.0137,0.0115,0.0133,0.0062,0.0052,-0.003,-0.0117,-0.0141,-0.0177,-0.0223,-0.0262,-0.0262,-0.0269,-0.0269,-0.0335,-0.0272,-0.0272,-0.0272,-0.0272,0,0.0149,0.0164,0.016,0.017,0.0206,0.0184,0.0227,0.0215,0.0225,0.026,0.0184,0.0205,0.0071,0.0028,-0.0073,-0.0148,-0.0145,-0.0246,-0.0259,-0.0252,-0.025,-0.0345,-0.0401,-0.0272,-0.0272,-0.0272,-0.0272,0,0.0189,0.0183,0.0207,0.0215,0.0227,0.0256,0.0296,0.0329,0.0326,0.0377,0.0376,0.0327,0.0271,0.0145,0.003,-0.007,-0.0216,-0.0194,-0.0166,-0.0177,-0.0313,-0.0366,-0.0454,-0.0515,-0.0239,-0.0238,-0.0238,0,0.021,0.0226,0.0252,0.0283,0.0293,0.0336,0.0376,0.0382,0.0424,0.0459,0.0495,0.0456,0.0437,0.0284,0.0101,-0.0059,-0.0183,-0.0163,-0.0223,-0.0305,-0.0375,-0.0435,-0.0485,-0.0212,-0.0211,-0.0211,-0.0211,0,0.0255,0.0264,0.0285,0.0349,0.0398,0.0448,0.0504,0.0551,0.0573,0.062,0.0671,0.066,0.052,0.0359,0.014,0.002,-0.0234,-0.016,-0.0261,-0.0365,-0.042,-0.0489,-0.0219,-0.0207,-0.0208,-0.0208,-0.0208,-0.0208,0.0296,0.0323,0.036,0.0424,0.0479,0.0549,0.0594,0.0662,0.0738,0.0793,0.0786,0.0774,0.0563,0.0267,0.0099,-0.0188,-0.0213,-0.0293,-0.0349,-0.0401,-0.0467,-0.0176,-0.0172,-0.0172,-0.0173,-0.0173,-0.0173,0,0.0351,0.0382,0.0438,0.0503,0.057,0.0585,0.0673,0.072,0.0812,0.0861,0.0887,0.0764,0.0495,0.0217,-0.015,-0.0352,-0.0463,-0.0457,-0.0552,-0.0597,-0.0345,-0.035,-0.0366,-0.0366,-0.0366,-0.0366,-0.0366,-0.0366,0.0382,0.0443,0.0467,0.0576,0.062,0.0688,0.0733,0.0805,0.0852,0.0901,0.0878,0.0844,0.0645,0.0008,-0.0459,-0.0565,-0.0731,-0.0736,-0.0837,-0.0672,-0.0662,-0.0652,-0.0671,-0.0754,-0.0754,-0.108,-0.1083,-0.1085]}],[{"header":{"parameterUnit":"m.s-1","parameterCategory":2,"la1":30.2991,"la2":30.254,"lo1":-89.0895,"lo2":-89.0444,"dy":0.0017,"dx":0.0017,"nx":28,"ny":28,"refTime":"2024-06-18T03:00:00:Z","depth":"2","parameterNumber":2,"parameterNumberName":"U-component_of_CURRENTS"},"data":[0,0,0,0,0,0,0,0,0,0,0,0,0,0,0,0,0,0,0,0,0,0,0,0,0,0,0,0,0,0,0,0,0,0,0,0,0,0,0,0,0,0,0,0,0,0,0,0,0,0,0,0,0,0,0,0,0,0,0.1643,0.1643,0,0.1641,0.164,0.164,0.162,0.162,0.1619,0.1619,0.1597,0.1596,0.1596,0,0,0,0,0,0,0,0,0,0,0,0,0,0.1624,0.1624,0.1643,0.1643,0.1643,0.1641,0.164,0.164,0.162,0.162,0.1619,0.1619,0.1597,0.1597,0.1596,0,0,0,0,0,0,0,0,0,0,0,0,0,0.1625,0.1624,0.1643,0.1635,0.1634,0.1641,0.164,0.164,0.162,0.162,0.1619,0.1619,0.1597,0.1597,0.1596,0.1602,0,0,0.1595,0.1594,0,0,0,0,0,0,0,0,0.1625,0.1626,0.1636,0.1635,0.1635,0.1632,0.1625,0.1627,0.162,0.1623,0.1619,0.1619,0.1609,0.1607,0.1605,0.1601,0.16,0.1595,0.1594,0.1594,0.1594,0,0,0,0,0,0,0,0.1625,0.1626,0.164,0.1636,0.1635,0.1629,0.1629,0.1625,0.1616,0.1623,0.1622,0.1625,0.1608,0.1605,0.1604,0.1599,0.1595,0.1594,0.1594,0.1594,0.1624,0.1625,0,0,0,0,0,0,0.1631,0.1626,0.164,0.164,0.1632,0.163,0.1629,0.1631,0.1616,0.1615,0.1626,0.1625,0.1606,0.1605,0.1603,0.1629,0.1594,0.1594,0.1593,0.1623,0.1624,0.1625,0,0,0,0,0,0,0.1631,0.1632,0.164,0.1635,0.1635,0.1631,0.1633,0.1632,0.1632,0.1619,0.1617,0.1629,0.1606,0.1604,0.1611,0.1628,0.1593,0.1593,0.1622,0.1623,0.1625,0.1669,0,0,0,0,0,0,0.163,0.1632,0.1634,0.1635,0.1636,0.1649,0.1634,0.1632,0.1636,0.1634,0.1621,0.1618,0.1605,0.1612,0.161,0.1626,0.1592,0.162,0.1622,0.1624,0.1666,0.1672,0.1677,0,0,0,0,0,0.1629,0.1633,0.1634,0.1636,0.1639,0.165,0.165,0.1643,0.1637,0.1641,0.1636,0.1619,0.1624,0.1612,0.161,0.1626,0.1619,0.1622,0.1624,0.1664,0.1671,0.1677,0,0,0,0,0,0,0.1622,0.1632,0.1633,0.1638,0.1648,0.1648,0.165,0.1649,0.1648,0.1645,0.1631,0.1628,0.1643,0.1631,0.1618,0.1643,0.162,0.1622,0.165,0.1657,0.1662,0.1669,0.1592,0,0,0,0,0,0.1624,0.163,0.164,0.1645,0.1651,0.1653,0.1656,0.1655,0.1656,0.1655,0.1649,0.1645,0.1652,0.1651,0.1651,0.1662,0.1673,0.1672,0.1678,0.1682,0.1688,0.1721,0.173,0.1634,0.1634,0.1633,0,0,0.1621,0.1629,0.1631,0.1644,0.1649,0.1663,0.1653,0.1662,0.1674,0.1653,0.1665,0.1664,0.166,0.1675,0.168,0.1666,0.172,0.1686,0.1689,0.1692,0.1724,0.1734,0.1742,0.1635,0.1635,0.1635,0,0,0.1623,0.1629,0.1636,0.1649,0.1664,0.167,0.1676,0.1684,0.1687,0.1702,0.1695,0.1708,0.1708,0.1713,0.1715,0.1751,0.175,0.1751,0.1779,0.1812,0.182,0.1827,0.1872,0.1883,0.1751,0.1751,0.1751,0,0.1621,0.1631,0.164,0.1657,0.1667,0.1676,0.169,0.1702,0.1711,0.1719,0.1711,0.1733,0.1728,0.1755,0.1769,0.1763,0.1786,0.1753,0.1819,0.1826,0.1833,0.1877,0.1889,0.1753,0.1753,0.1753,0.1752,0,0.1631,0.1643,0.165,0.1674,0.1689,0.1702,0.1723,0.1736,0.1743,0.1755,0.1782,0.1784,0.1796,0.1801,0.1796,0.1842,0.1846,0.1825,0.1802,0.1846,0.1889,0.19,0.1757,0.1756,0.1755,0.1754,0,0,0.1613,0.1649,0.1651,0.1668,0.1698,0.1712,0.1738,0.1764,0.179,0.1802,0.1833,0.1849,0.1855,0.1858,0.1858,0.1886,0.1959,0.1879,0.188,0.1924,0.2049,0.2023,0.2033,0.1951,0.1952,0.1954,0.2067,0,0.1616,0.1644,0.1662,0.1693,0.1711,0.1733,0.1763,0.1792,0.1815,0.1851,0.1863,0.1897,0.1876,0.1893,0.1918,0.1951,0.1988,0.1931,0.2,0.2003,0.1974,0.2044,0.1817,0.1896,0.2078,0.208,0.2081,0,0.1615,0.1637,0.1664,0.1709,0.172,0.1744,0.1791,0.1821,0.1874,0.1896,0.1926,0.1942,0.199,0.1964,0.2042,0.2009,0.2036,0.2057,0.2061,0.2027,0.1997,0.1879,0.1909,0.2099,0.2098,0.2096,0.2095,0,0.1594,0.1635,0.1655,0.1671,0.1727,0.1745,0.1776,0.1831,0.1859,0.1932,0.1961,0.2013,0.2049,0.2086,0.2125,0.2094,0.2215,0.2173,0.2177,0.2176,0.1991,0.197,0.2233,0.2233,0.2232,0.2232,0.2232,0,0.1587,0.1604,0.1651,0.1666,0.1697,0.1746,0.1786,0.1828,0.1891,0.1925,0.1985,0.2016,0.2083,0.2144,0.2165,0.2218,0.2249,0.2205,0.2208,0.2002,0.1982,0.2152,0.2141,0.2236,0.2235,0.2234,0.2234,0,0.1561,0.159,0.1617,0.1673,0.1688,0.1713,0.177,0.1801,0.188,0.1926,0.1951,0.2045,0.2127,0.2193,0.2278,0.2275,0.2324,0.2331,0.2099,0.2072,0.2255,0.2245,0.2351,0.2351,0.2351,0.2352,0.2352,0,0.1551,0.1564,0.1607,0.1614,0.1637,0.1677,0.1699,0.1778,0.1805,0.1921,0.1933,0.205,0.2092,0.2234,0.2244,0.2305,0.2349,0.2156,0.2048,0.2277,0.227,0.2259,0.225,0.1828,0.1824,0.182,0.1818,0,0.153,0.1542,0.1561,0.1573,0.1591,0.1608,0.1646,0.1663,0.1753,0.1805,0.1869,0.1924,0.2043,0.2008,0.2119,0.2111,0.2127,0.2089,0.2392,0.1836,0.1794,0.1783,0.1789,0.1787,0.179,0.1792,0.1794,0.1795,0.1502,0.1502,0.1517,0.152,0.1527,0.152,0.151,0.1563,0.1596,0.166,0.1745,0.1778,0.1827,0.1868,0.1841,0.1832,0.1978,0.1895,0.1901,0.1912,0.1834,0.1794,0.1774,0.1777,0.1779,0.1782,0.1784,0,0.1464,0.1457,0.146,0.1445,0.1421,0.1448,0.1451,0.1458,0.1467,0.154,0.1587,0.1483,0.1468,0.1529,0.1452,0.1492,0.1427,0.1445,0.1324,0.1356,0.1385,0.1275,0.107,0.1068,0.1066,0.1064,0,0,0.1442,0.1422,0.1418,0.1345,0.1324,0.1275,0.126,0.1304,0.1343,0.1348,0.1331,0.143,0.1479,0.1254,0.1234,0.114,0.1236,0.1091,0.1661,0.155,0.1575,0.1642,0.1511,0,0,0,0,0]},{"header":{"parameterUnit":"m.s-1","parameterCategory":2,"la1":30.2991,"la2":30.254,"lo1":-89.0895,"lo2":-89.0444,"dy":0.0017,"dx":0.0017,"nx":28,"ny":28,"refTime":"2024-06-18T03:00:00:Z","depth":"2","parameterNumber":3,"parameterNumberName":"V-component_of_CURRENTS"},"data":[0,0,0,0,0,0,0,0,0,0,0,0,0,0,0,0,0,0,0,0,0,0,0,0,0,0,0,0,0,0,0,0,0,0,0,0,0,0,0,0,0,0,0,0,0,0,0,0,0,0,0,0,0,0,0,0,0,0,-0.0187,-0.0188,0,-0.0245,-0.0246,-0.0246,-0.0289,-0.0289,-0.029,-0.029,-0.036,-0.0361,-0.0363,0,0,0,0,0,0,0,0,0,0,0,0,0,-0.0142,-0.0143,-0.0187,-0.0188,-0.0189,-0.0245,-0.0246,-0.0246,-0.0289,-0.0289,-0.029,-0.029,-0.0359,-0.0361,-0.0363,0,0,0,0,0,0,0,0,0,0,0,0,0,-0.0178,-0.0143,-0.0187,-0.0216,-0.0219,-0.0245,-0.0246,-0.0247,-0.0289,-0.0289,-0.029,-0.029,-0.0358,-0.0361,-0.0363,-0.0368,0,0,-0.037,-0.0371,0,0,0,0,0,0,0,0,-0.0176,-0.0179,-0.0211,-0.0214,-0.0218,-0.026,-0.0255,-0.0288,-0.0289,-0.0263,-0.029,-0.029,-0.0326,-0.0331,-0.0342,-0.0371,-0.0374,-0.037,-0.0372,-0.0373,-0.0373,0,0,0,0,0,0,0,-0.0173,-0.0177,-0.0211,-0.0212,-0.0216,-0.0236,-0.0241,-0.0262,-0.0292,-0.0265,-0.0268,-0.0274,-0.0329,-0.034,-0.0344,-0.0375,-0.037,-0.0372,-0.0374,-0.0375,-0.0425,-0.0424,0,0,0,0,0,0,-0.0163,-0.0175,-0.0209,-0.0212,-0.0197,-0.0236,-0.0242,-0.0246,-0.0292,-0.0299,-0.0273,-0.0275,-0.0335,-0.0341,-0.0347,-0.0358,-0.0373,-0.0375,-0.0376,-0.0425,-0.0425,-0.0424,0,0,0,0,0,0,-0.0161,-0.0165,-0.0207,-0.0195,-0.0201,-0.0236,-0.0241,-0.0247,-0.0258,-0.0297,-0.0305,-0.0277,-0.0336,-0.0343,-0.0363,-0.0361,-0.0376,-0.0378,-0.0425,-0.0425,-0.0424,-0.0379,0,0,0,0,0,0,-0.016,-0.0164,-0.0161,-0.0194,-0.0201,-0.0216,-0.024,-0.0248,-0.026,-0.0264,-0.0303,-0.031,-0.0337,-0.0359,-0.0365,-0.0365,-0.038,-0.0425,-0.0425,-0.0425,-0.0381,-0.0378,-0.0375,0,0,0,0,0,-0.0158,-0.0151,-0.0161,-0.0165,-0.0197,-0.0215,-0.0221,-0.0248,-0.026,-0.026,-0.0289,-0.0309,-0.0363,-0.0361,-0.0368,-0.0368,-0.0425,-0.0425,-0.0425,-0.0382,-0.0378,-0.0375,0,0,0,0,0,0,-0.0126,-0.0155,-0.0167,-0.0168,-0.0187,-0.0222,-0.0224,-0.0243,-0.0266,-0.0268,-0.0307,-0.0315,-0.0333,-0.0355,-0.0352,-0.0382,-0.0398,-0.0399,-0.0363,-0.036,-0.0357,-0.0342,-0.0382,0,0,0,0,0,-0.0118,-0.0121,-0.0151,-0.015,-0.0157,-0.0189,-0.0199,-0.0217,-0.0243,-0.0253,-0.0282,-0.0312,-0.0338,-0.0352,-0.0376,-0.039,-0.0401,-0.0396,-0.0393,-0.039,-0.0382,-0.0399,-0.0396,-0.0424,-0.0424,-0.0424,0,0,-0.0105,-0.012,-0.0122,-0.0144,-0.0161,-0.0167,-0.0196,-0.0206,-0.0214,-0.0256,-0.0272,-0.0301,-0.0339,-0.0357,-0.0367,-0.0375,-0.0386,-0.039,-0.0387,-0.0381,-0.0398,-0.0395,-0.0393,-0.0424,-0.0424,-0.0424,0,0,-0.0081,-0.0094,-0.009,-0.0104,-0.0125,-0.0145,-0.0145,-0.0177,-0.0193,-0.021,-0.0245,-0.0269,-0.0306,-0.0335,-0.0355,-0.0349,-0.0369,-0.0358,-0.0332,-0.0347,-0.0345,-0.0343,-0.0343,-0.0341,-0.0357,-0.0357,-0.0357,0,-0.0062,-0.0065,-0.009,-0.0091,-0.0097,-0.0132,-0.0128,-0.0149,-0.0184,-0.0192,-0.0207,-0.0262,-0.0297,-0.0321,-0.0324,-0.0342,-0.0347,-0.0341,-0.0342,-0.0341,-0.0339,-0.034,-0.0339,-0.0355,-0.0355,-0.0356,-0.0356,0,-0.004,-0.0042,-0.0038,-0.0052,-0.0061,-0.0062,-0.0093,-0.0103,-0.0124,-0.0148,-0.0172,-0.0219,-0.025,-0.0269,-0.0297,-0.0308,-0.0312,-0.0335,-0.0348,-0.0334,-0.0335,-0.0335,-0.0352,-0.0353,-0.0353,-0.0354,0,0,0.0002,-0.0018,-0.0017,-0.0015,-0.004,-0.0043,-0.0051,-0.0068,-0.0063,-0.0107,-0.0104,-0.0166,-0.0189,-0.0212,-0.0252,-0.0272,-0.0272,-0.0296,-0.0297,-0.0288,-0.029,-0.0288,-0.0287,-0.0293,-0.0292,-0.0292,-0.0291,0,0.0029,0.0038,0.0018,0.0031,0.0034,0.0006,0.0004,-0.0015,-0.0034,-0.0038,-0.0094,-0.011,-0.0169,-0.0177,-0.0208,-0.025,-0.027,-0.027,-0.0312,-0.0313,-0.0307,-0.0287,-0.0286,-0.0284,-0.029,-0.029,-0.029,0,0.0057,0.0059,0.0076,0.0074,0.0075,0.0081,0.0084,0.0078,0.0057,0.0043,0.0013,-0.0028,-0.0068,-0.0116,-0.0184,-0.0178,-0.023,-0.0269,-0.027,-0.0282,-0.0309,-0.0303,-0.0284,-0.029,-0.029,-0.029,-0.029,0,0.0099,0.0101,0.0119,0.0117,0.011,0.0122,0.0123,0.011,0.0123,0.0102,0.0119,0.0049,0.0038,-0.0043,-0.0131,-0.0155,-0.0191,-0.0236,-0.0284,-0.0284,-0.03,-0.0301,-0.0286,-0.0286,-0.0286,-0.0286,-0.0286,0,0.0133,0.0148,0.0145,0.0155,0.0192,0.017,0.0213,0.0202,0.0212,0.0245,0.017,0.0189,0.0057,0.0014,-0.0087,-0.0167,-0.0159,-0.0268,-0.0283,-0.0283,-0.0283,-0.0306,-0.0309,-0.0285,-0.0286,-0.0286,-0.0286,0,0.0173,0.0167,0.0192,0.0201,0.0213,0.0242,0.0282,0.0314,0.0312,0.0361,0.0359,0.031,0.0252,0.0129,0.0013,-0.0092,-0.0184,-0.022,-0.0201,-0.0214,-0.028,-0.028,-0.0276,-0.0276,-0.0276,-0.0276,-0.0276,0,0.0194,0.021,0.0237,0.0267,0.0278,0.0322,0.036,0.0367,0.0407,0.044,0.0474,0.0434,0.0403,0.0246,0.0058,-0.0107,-0.0138,-0.0212,-0.0274,-0.0264,-0.0279,-0.0279,-0.0279,-0.0274,-0.0274,-0.0274,-0.0274,0,0.0238,0.0248,0.0269,0.0333,0.0381,0.0431,0.0485,0.0531,0.0552,0.0594,0.0641,0.0618,0.0465,0.0286,0.006,-0.0055,-0.0191,-0.0216,-0.0203,-0.0276,-0.0262,-0.0276,-0.0277,-0.0273,-0.0273,-0.0273,-0.0273,-0.0273,0.0279,0.0306,0.0343,0.0406,0.046,0.0528,0.0571,0.0623,0.069,0.0702,0.0723,0.0652,0.0471,0.0141,-0.0004,-0.017,-0.0177,-0.0268,-0.0269,-0.0269,-0.0269,-0.0255,-0.0264,-0.0264,-0.0264,-0.0264,-0.0264,0,0.0327,0.0362,0.0418,0.0482,0.0537,0.0562,0.0647,0.0647,0.0711,0.0706,0.0705,0.0494,0.0324,0.0141,-0.0108,-0.0253,-0.0277,-0.0291,-0.0297,-0.0296,-0.0296,-0.0297,-0.03,-0.0301,-0.0301,-0.0301,0,0,0.0355,0.0412,0.0436,0.0533,0.058,0.063,0.0671,0.0659,0.0643,0.0594,0.0538,0.0458,0.029,0.009,-0.0071,-0.0184,-0.0217,-0.0212,-0.017,-0.0158,-0.0156,-0.027,-0.027,0,0,0,0,0]}],[{"header":{"parameterUnit":"m.s-1","parameterCategory":2,"la1":30.2991,"la2":30.254,"lo1":-89.0895,"lo2":-89.0444,"dy":0.0017,"dx":0.0017,"nx":28,"ny":28,"refTime":"2024-06-18T03:00:00:Z","depth":"4","parameterNumber":2,"parameterNumberName":"U-component_of_CURRENTS"},"data":[0,0,0,0,0,0,0,0,0,0,0,0,0,0,0,0,0,0,0,0,0,0,0,0,0,0,0,0,0,0,0,0,0,0,0,0,0,0,0,0,0,0,0,0,0,0,0,0,0,0,0,0,0,0,0,0,0,0,0.1028,0.1028,0,0.1086,0.1087,0.1088,0.1134,0.1135,0.1135,0.1136,0.1189,0.119,0.1191,0,0,0,0,0,0,0,0,0,0,0,0,0,0.0967,0.0968,0.1028,0.1028,0.1029,0.1086,0.1087,0.1088,0.1134,0.1135,0.1136,0.1136,0.1188,0.119,0.1191,0,0,0,0,0,0,0,0,0,0,0,0,0,0.1006,0.0968,0.1027,0.1059,0.1063,0.1086,0.1087,0.1088,0.1134,0.1135,0.1136,0.1136,0.1188,0.1189,0.1191,0.1185,0,0,0.1195,0.1196,0,0,0,0,0,0,0,0,0.1004,0.1008,0.1054,0.1057,0.1061,0.1104,0.1085,0.112,0.1134,0.1107,0.1136,0.1137,0.1159,0.1163,0.1173,0.1188,0.119,0.1195,0.1196,0.1197,0.1197,0,0,0,0,0,0,0,0.1001,0.1006,0.1051,0.1055,0.1059,0.1075,0.1081,0.1092,0.1128,0.1109,0.1113,0.1119,0.1161,0.1171,0.1174,0.1191,0.1195,0.1197,0.1198,0.1198,0.1274,0.1275,0,0,0,0,0,0,0.0993,0.1003,0.1049,0.1052,0.1034,0.1075,0.1082,0.1089,0.1128,0.1135,0.1119,0.1121,0.1168,0.1172,0.1176,0.1234,0.1197,0.1198,0.1199,0.1273,0.1274,0.1276,0,0,0,0,0,0,0.0991,0.0996,0.1046,0.1029,0.1037,0.1075,0.1083,0.109,0.1124,0.1136,0.1142,0.1148,0.1169,0.1174,0.1207,0.1234,0.1199,0.12,0.1272,0.1273,0.1275,0.1311,0,0,0,0,0,0,0.0989,0.0995,0.101,0.1029,0.1038,0.1075,0.1083,0.1091,0.1125,0.113,0.1162,0.1166,0.117,0.1205,0.1209,0.1236,0.1201,0.127,0.1272,0.1274,0.1308,0.1313,0.1318,0,0,0,0,0,0.0987,0.1,0.1011,0.1017,0.1053,0.1076,0.1082,0.1111,0.1126,0.1144,0.1167,0.1167,0.1222,0.1207,0.1211,0.1239,0.1269,0.1272,0.1274,0.1306,0.1312,0.1318,0,0,0,0,0,0,0.0984,0.1007,0.1019,0.104,0.1063,0.1084,0.1108,0.1123,0.1156,0.1168,0.1178,0.1184,0.1225,0.1226,0.121,0.1268,0.1247,0.125,0.1269,0.1276,0.1281,0.1272,0.1202,0,0,0,0,0,0.0988,0.1008,0.1028,0.1049,0.1062,0.1089,0.1107,0.1125,0.115,0.1167,0.1187,0.1211,0.1235,0.125,0.1268,0.1297,0.1296,0.1319,0.1324,0.1328,0.1324,0.1346,0.1353,0.1284,0.1284,0.1284,0,0,0.0995,0.101,0.1023,0.1051,0.1074,0.1093,0.1103,0.1137,0.1159,0.1166,0.121,0.123,0.1246,0.1282,0.1301,0.1289,0.135,0.1331,0.1335,0.1329,0.135,0.1356,0.1362,0.1286,0.1286,0.1285,0,0,0.1007,0.1031,0.1049,0.1068,0.1102,0.1115,0.1128,0.116,0.1185,0.1221,0.1236,0.1271,0.1304,0.1323,0.1335,0.1377,0.1376,0.139,0.1409,0.1431,0.1437,0.1442,0.1459,0.1466,0.1392,0.1392,0.1392,0,0.1016,0.1036,0.1059,0.1078,0.1098,0.1125,0.1145,0.1171,0.1211,0.1233,0.1241,0.1307,0.1322,0.1366,0.1383,0.1389,0.1399,0.1385,0.1437,0.1442,0.1446,0.1463,0.1469,0.1394,0.1394,0.1394,0.1394,0,0.1031,0.1057,0.1071,0.1102,0.1125,0.1151,0.118,0.1212,0.1243,0.1265,0.1324,0.135,0.1391,0.1404,0.1406,0.1452,0.1449,0.1441,0.1419,0.1455,0.1471,0.1477,0.1397,0.1397,0.1396,0.1396,0,0,0.1022,0.1071,0.1079,0.1099,0.1141,0.1159,0.12,0.124,0.1276,0.1318,0.1364,0.1409,0.1434,0.145,0.1468,0.1482,0.1525,0.1476,0.1476,0.1489,0.1576,0.1472,0.1468,0.1528,0.1529,0.153,0.1578,0,0.103,0.1063,0.1089,0.1128,0.1147,0.1187,0.1221,0.1263,0.1306,0.1357,0.1397,0.1452,0.145,0.1487,0.1502,0.1525,0.1541,0.1512,0.1543,0.1543,0.1442,0.1471,0.1534,0.1582,0.1583,0.1584,0.1585,0,0.1028,0.1054,0.1089,0.1142,0.1157,0.1187,0.1251,0.1289,0.1358,0.1396,0.1454,0.1492,0.1547,0.1533,0.1585,0.1571,0.1576,0.1579,0.1581,0.1471,0.1449,0.1537,0.1595,0.1594,0.1593,0.1593,0.1592,0,0.0997,0.1052,0.1081,0.11,0.1161,0.1196,0.1238,0.1305,0.1348,0.1436,0.1477,0.1542,0.1591,0.161,0.1626,0.1619,0.1659,0.1653,0.1562,0.1555,0.1619,0.1613,0.1674,0.1674,0.1674,0.1674,0.1674,0,0.0976,0.1005,0.1076,0.1091,0.1136,0.1191,0.1254,0.1302,0.1384,0.1429,0.1506,0.1545,0.1611,0.1643,0.1645,0.1618,0.1683,0.1564,0.1557,0.1635,0.163,0.1624,0.1617,0.1676,0.1675,0.1675,0.1675,0,0.0928,0.0975,0.1015,0.1093,0.112,0.1157,0.1258,0.1304,0.1386,0.145,0.1486,0.1568,0.1609,0.1649,0.1682,0.1634,0.1623,0.1593,0.1677,0.1675,0.1504,0.1499,0.1508,0.1505,0.1502,0.1499,0.1497,0,0.0901,0.0915,0.1004,0.1042,0.1083,0.1154,0.1201,0.1292,0.1336,0.1443,0.146,0.1539,0.158,0.1546,0.1592,0.1595,0.1568,0.1557,0.152,0.1493,0.1487,0.1486,0.1485,0.1493,0.1492,0.1491,0.1491,0,0.0845,0.0888,0.0926,0.1002,0.1062,0.1121,0.1194,0.1212,0.131,0.1391,0.1405,0.1425,0.1459,0.148,0.1488,0.1483,0.1563,0.1527,0.1532,0.1498,0.1475,0.1471,0.1473,0.1481,0.1482,0.1483,0.1484,0,0.0811,0.0826,0.089,0.0952,0.1032,0.1075,0.1115,0.116,0.1203,0.1304,0.13,0.1372,0.1439,0.1421,0.1426,0.1418,0.1401,0.1352,0.1366,0.1378,0.1311,0.126,0.1193,0,0,0,0,0,0.0772,0.0788,0.084,0.0908,0.0992,0.1035,0.1108,0.1149,0.1223,0.12,0.1246,0.1269,0.128,0.1313,0.128,0.1381,0.1415,0.1336,0.1368,0.1426,0.1438,0.1369,0,0,0,0,0,0,0.0749,0.0789,0.0811,0.0866,0.0911,0.0984,0.1027,0.1074,0.106,0.1134,0.1144,0.1198,0.1229,0.1291,0.126,0.1271,0.1265,0.1379,0.1376,0.142,0.143,0.1439,0.1373,0,0,0,0,0]},{"header":{"parameterUnit":"m.s-1","parameterCategory":2,"la1":30.2991,"la2":30.254,"lo1":-89.0895,"lo2":-89.0444,"dy":0.0017,"dx":0.0017,"nx":28,"ny":28,"refTime":"2024-06-18T03:00:00:Z","depth":"4","parameterNumber":3,"parameterNumberName":"V-component_of_CURRENTS"},"data":[0,0,0,0,0,0,0,0,0,0,0,0,0,0,0,0,0,0,0,0,0,0,0,0,0,0,0,0,0,0,0,0,0,0,0,0,0,0,0,0,0,0,0,0,0,0,0,0,0,0,0,0,0,0,0,0,0,0,-0.0067,-0.0068,0,-0.0099,-0.0099,-0.0099,-0.0112,-0.0112,-0.0112,-0.0112,-0.0113,-0.0113,-0.0113,0,0,0,0,0,0,0,0,0,0,0,0,0,-0.0029,-0.0029,-0.0067,-0.0068,-0.0068,-0.0098,-0.0099,-0.0099,-0.0112,-0.0112,-0.0112,-0.0112,-0.0113,-0.0113,-0.0113,0,0,0,0,0,0,0,0,0,0,0,0,0,-0.0051,-0.0029,-0.0067,-0.0078,-0.008,-0.0098,-0.0099,-0.0099,-0.0112,-0.0112,-0.0112,-0.0112,-0.0113,-0.0113,-0.0113,-0.0115,0,0,-0.0113,-0.0114,0,0,0,0,0,0,0,0,-0.005,-0.0052,-0.0076,-0.0078,-0.0079,-0.0102,-0.0086,-0.0103,-0.0112,-0.0099,-0.0112,-0.0112,-0.0107,-0.0107,-0.0113,-0.0115,-0.0115,-0.0113,-0.0114,-0.0114,-0.0114,0,0,0,0,0,0,0,-0.0048,-0.0051,-0.0079,-0.0077,-0.0079,-0.0085,-0.0088,-0.0089,-0.0102,-0.01,-0.0102,-0.0106,-0.0107,-0.0113,-0.0113,-0.0115,-0.0113,-0.0114,-0.0114,-0.0114,-0.0101,-0.0101,0,0,0,0,0,0,-0.0044,-0.005,-0.0078,-0.008,-0.0064,-0.0086,-0.0089,-0.0094,-0.0103,-0.0104,-0.0106,-0.0106,-0.0113,-0.0113,-0.0113,-0.0095,-0.0114,-0.0114,-0.0114,-0.0101,-0.0101,-0.01,0,0,0,0,0,0,-0.0044,-0.0047,-0.0077,-0.0066,-0.007,-0.0087,-0.0092,-0.0095,-0.0103,-0.0107,-0.0108,-0.0111,-0.0113,-0.0113,-0.011,-0.0096,-0.0114,-0.0114,-0.0102,-0.0101,-0.0101,-0.0073,0,0,0,0,0,0,-0.0042,-0.0046,-0.0049,-0.0066,-0.0071,-0.0085,-0.0092,-0.0095,-0.0105,-0.0106,-0.0112,-0.0112,-0.0113,-0.011,-0.011,-0.0097,-0.0114,-0.0102,-0.0102,-0.0101,-0.0074,-0.0071,-0.0069,0,0,0,0,0,-0.0041,-0.0046,-0.0049,-0.0053,-0.0074,-0.0085,-0.0088,-0.01,-0.0106,-0.0107,-0.0109,-0.0112,-0.0105,-0.011,-0.011,-0.0096,-0.0103,-0.0102,-0.0101,-0.0075,-0.0072,-0.0069,0,0,0,0,0,0,-0.0034,-0.0048,-0.0052,-0.0062,-0.0071,-0.0087,-0.0093,-0.0101,-0.0105,-0.0105,-0.011,-0.0109,-0.0101,-0.0105,-0.011,-0.0091,-0.0103,-0.0103,-0.0084,-0.008,-0.0078,-0.0067,-0.0114,0,0,0,0,0,-0.0032,-0.0038,-0.0052,-0.0059,-0.0064,-0.0078,-0.0085,-0.0092,-0.0099,-0.0101,-0.0105,-0.0104,-0.0098,-0.0095,-0.0094,-0.0085,-0.0104,-0.0076,-0.0073,-0.0071,-0.0063,-0.0079,-0.0077,-0.0098,-0.0098,-0.0098,0,0,-0.0032,-0.004,-0.0044,-0.0057,-0.0067,-0.0062,-0.0082,-0.0091,-0.0082,-0.01,-0.0091,-0.0098,-0.0095,-0.0083,-0.0079,-0.0083,-0.008,-0.007,-0.0068,-0.0061,-0.0077,-0.0075,-0.0074,-0.0097,-0.0097,-0.0097,0,0,-0.0028,-0.0041,-0.004,-0.0042,-0.0053,-0.0057,-0.0059,-0.0073,-0.0075,-0.0072,-0.0077,-0.0075,-0.0073,-0.0064,-0.0059,-0.0041,-0.0067,-0.0043,-0.0017,-0.0032,-0.003,-0.0029,-0.0071,-0.0074,-0.0038,-0.0038,-0.0038,0,-0.0026,-0.0024,-0.0041,-0.0035,-0.0031,-0.0051,-0.004,-0.0044,-0.0054,-0.0051,-0.0063,-0.0058,-0.0059,-0.0035,-0.0027,-0.0033,-0.0059,-0.0029,-0.0029,-0.0028,-0.0027,-0.007,-0.0073,-0.0037,-0.0037,-0.0037,-0.0037,0,-0.0015,-0.001,-0.001,-0.0003,-0.0002,0.0001,-0.0001,-0.0,-0.0008,-0.0013,-0.0006,-0.0013,-0.001,-0.0008,-0.001,0.0002,-0.0025,-0.0027,-0.0037,-0.0023,-0.007,-0.0074,-0.0035,-0.0035,-0.0036,-0.0036,0,0,-0.0019,-0.0003,-0.0002,0.0014,0.0018,0.0022,0.0038,0.0047,0.0054,0.0044,0.0051,0.0062,0.0042,0.0047,0.0038,0.0032,0.0009,0.0008,0.0007,-0.0034,-0.005,-0.0063,-0.0069,0.0004,0.0004,0.0004,-0.0092,0,-0.0002,0.0025,0.0027,0.0058,0.0074,0.0072,0.009,0.0096,0.0089,0.0087,0.0079,0.0078,0.0068,0.0063,0.0056,0.002,0.0003,0.0034,-0.0056,-0.0059,-0.0072,-0.0071,0.0004,-0.0095,-0.0096,-0.0097,-0.0097,0,0.001,0.003,0.0066,0.0098,0.0104,0.012,0.0142,0.0153,0.0149,0.014,0.0134,0.0113,0.0104,0.0088,0.0034,0.005,0.0007,-0.0024,-0.0029,-0.0049,-0.0078,-0.0107,-0.0105,-0.0104,-0.0104,-0.0103,-0.0103,0,0.0024,0.0057,0.0091,0.0103,0.0133,0.015,0.0163,0.0169,0.0172,0.0165,0.0152,0.0137,0.0112,0.0073,0.0005,0.0015,-0.0069,-0.0066,-0.0121,-0.0125,-0.0098,-0.0098,-0.0102,-0.0102,-0.0102,-0.0101,-0.0101,0,0.0044,0.0069,0.0101,0.0121,0.0156,0.0169,0.0192,0.0199,0.0197,0.0195,0.0174,0.0158,0.0108,0.0051,0.0001,-0.0082,-0.0079,-0.0119,-0.0143,-0.0088,-0.0085,-0.0103,-0.0101,-0.0105,-0.0104,-0.0103,-0.0103,0,0.0052,0.0075,0.0112,0.0151,0.0163,0.0185,0.0205,0.0214,0.021,0.0202,0.0197,0.0158,0.0087,0.0021,-0.0061,-0.0098,-0.0167,-0.0196,-0.0156,-0.0177,-0.0215,-0.0211,-0.0265,-0.0266,-0.0267,-0.0268,-0.0269,0,0.0058,0.008,0.0127,0.0145,0.0163,0.0192,0.0207,0.0219,0.0219,0.02,0.019,0.0128,0.0093,-0.004,-0.01,-0.0211,-0.0214,-0.026,-0.0205,-0.021,-0.0228,-0.0223,-0.0218,-0.027,-0.027,-0.0271,-0.0271,0,0.0065,0.008,0.0108,0.0145,0.0169,0.0195,0.0213,0.0215,0.0218,0.0215,0.018,0.0123,0.0038,-0.0043,-0.0138,-0.0207,-0.023,-0.027,-0.0268,-0.0216,-0.0216,-0.0232,-0.0227,-0.0274,-0.0274,-0.0273,-0.0273,0,0.0059,0.0071,0.0102,0.0133,0.0164,0.0182,0.0201,0.0201,0.0204,0.0189,0.0176,0.0103,0.0066,-0.0044,-0.0127,-0.0202,-0.0207,-0.0216,-0.0216,-0.0214,-0.0158,-0.0148,-0.0206,0,0,0,0,0,0.0046,0.0053,0.0084,0.0114,0.0147,0.0159,0.0193,0.0207,0.0212,0.019,0.0186,0.0114,0.0003,-0.0042,-0.0119,-0.0147,-0.0228,-0.0241,-0.0241,-0.0292,-0.0288,-0.023,0,0,0,0,0,0,0.0033,0.0054,0.0071,0.0089,0.0103,0.013,0.015,0.0162,0.0154,0.0158,0.0103,0.0088,-0.002,0.0037,-0.0127,-0.0149,-0.0159,-0.0289,-0.0291,-0.0294,-0.029,-0.0287,-0.0227,0,0,0,0,0]}]]